This demonstration page uses our WeatherBlox Daily Observations layout. Learn more.

Left ArrowRight Arrow

38.20091, -84.87328

Hourly Observations for August 13, 2018

Temp ( °F °C ) Dew Point ( °F °C ) Humidity (%) Winds ( mph kmh ) Pressure ( in mb ) Visibility ( mi km ) Precip ( " mm )
12:53 am 00:53 Clear 68 20 65 18.3 90 90 Calm 30.07 1018 10 16 0.00 0.00
1:53 am 01:53 Clear 67 19.4 65 18.3 93 93 NNW 3 6 30.06 1018 8 13 0.00 0.00
2:53 am 02:53 Clear 65 18.3 63 17.2 93 93 Calm 30.05 1018 8 13 0.00 0.00
3:53 am 03:53 Clear 66 18.9 63 17.2 90 90 Calm 30.04 1017 10 16 0.00 0.00
4:53 am 04:53 Clear with Mist and Fog 65 18.3 63 17.2 93 93 Calm 30.04 1017 6 10 0.00 0.00
5:53 am 05:53 Clear 64 17.8 62 16.7 93 93 Calm 30.05 1018 8 13 0.00 0.00
6:53 am 06:53 Sunny 64 17.8 62 16.7 93 93 Calm 30.06 1018 7 11 0.00 0.00
7:53 am 07:53 Sunny 65 18.3 63 17.2 93 93 Calm 30.07 1018 8 13 0.00 0.00
8:53 am 08:53 Sunny 71 21.7 67 19.4 87 87 Calm 30.08 1019 10 16 0.00 0.00
9:53 am 09:53 Sunny 76 24.4 67 19.4 74 74 Calm 30.08 1019 10 16 0.00 0.00
10:53 am 10:53 Sunny 80 26.7 66 18.9 62 62 Calm 30.08 1019 10 16 0.00 0.00
11:53 am 11:53 Sunny 80 26.7 64 17.8 58 58 W 3 6 30.07 1018 10 16 0.00 0.00
12:53 pm 12:53 Mostly Sunny 81 27.2 66 18.9 61 61 VRB 5 7 30.06 1018 10 16 0.00 0.00
1:53 pm 13:53 Sunny 84 28.9 65 18.3 53 53 VRB 5 7 30.05 1018 10 16 0.00 0.00
2:53 pm 14:53 Mostly Sunny 84 28.9 66 18.9 55 55 VRB 3 6 30.03 1017 10 16 0.00 0.00
3:53 pm 15:53 Mostly Cloudy 85 29.4 64 17.8 50 50 NNW 8 13 30.01 1016 10 16 0.00 0.00
4:53 pm 16:53 Sunny 83 28.3 65 18.3 55 55 W 5 7 30.00 1016 10 16 0.00 0.00
5:53 pm 17:53 Mostly Sunny 84 28.9 64 17.8 51 51 VRB 3 6 29.98 1015 10 16 0.00 0.00
6:53 pm 18:53 Sunny 83 28.3 65 18.3 55 55 Calm 29.98 1015 10 16 0.00 0.00
7:53 pm 19:53 Sunny 81 27.2 67 19.4 62 62 Calm 29.98 1015 10 16 0.00 0.00
8:53 pm 20:53 Clear 75 23.9 69 20.6 82 82 Calm 29.99 1016 10 16 0.00 0.00
9:53 pm 21:53 Clear 72 22.2 68 20 87 87 NNW 3 6 30.00 1016 10 16 0.00 0.00
10:53 pm 22:53 Clear 71 21.7 68 20 90 90 Calm 30.01 1016 9 14 0.00 0.00
11:53 pm 23:53 Clear 69 20.6 67 19.4 93 93 Calm 30.01 1016 8 13 0.00 0.00

Powered by AerisWeather